286  
ASUS46 KPDT 240325  
RWRPDT  
PENDLETON REGIONAL WEATHER ROUNDUP  
NATIONAL WEATHER SERVICE PENDLETON OREGON  
700 PM PST THU NOV 23 2017  
 
NOTE: FAIR INDICATES FEW OR NO CLOUDS BELOW 12,000 FEET WITH NO  
SIGNIFICANT WEATHER AND/OR S TO VISIBILITY
.  
 
# INDICATES UNOFFICIAL STATION AND DATA  
 
WAZ520-240410-  
EAST SLOPES OF WASHINGTON CASCADES  
 
CITY SKY/WX TMP DP RH WIND PRES REMARKS
 
#BULLFROG N/A 42 37 82 W6 N/A  
#CLE ELUM HS N/A 42 34 73 N7 29.80R  
#CLE ELUM LAKE N/A 39 34 82 W8 29.84R  
#EASTON DOT N/A 39 36 89 N5 N/A  
#ELK HTS DOT N/A 40 39 96 W1 N/A  
#GLENWOOD N/A 45 38 76 S7 29.90R  
#NELSON 3SW N/A 37 35 92 E2 30.05F  
#NILE N/A 38 36 92 E1 29.10F  
#TROUT LAKE 1NE N/A 43 37 79 W7 29.93R  
#TROUT LAKE 1E N/A 43 38 82 CALM 29.96R  

 
 
WAZ521-240410-  
SIMCOE HIGHLANDS  
 
CITY SKY/WX TMP DP RH WIND PRES REMARKS
 
#BICKLETON HS N/A N/A N/A N/A S9 29.85R  
#SATUS PASS DOT N/A 42 26 53 N14G26 N/A WCI 35  
#CENTERVILLE 1SWN/A 47 39 74 W8 29.90R  
#GOLDENDALE 4W N/A 49 27 42 W22 29.96R WCI 42  
#GOODNOE HILLS N/A 49 44 83 W13 N/A WCI 44  
#LYLE 6NE N/A 48 42 80 W13 29.91R WCI 43  
#PITT 4SE N/A 44 39 82 CALM 29.92R  

 
 
WAZ026-240410-  
KITTITAS VALLEY  
 
CITY SKY/WX TMP DP RH WIND PRES REMARKS
 
ELLENSBURG AP MOCLDY 45 36 70 N16 29.85R WCI 38  
#ELLENSBURG CWU N/A 45 39 79 N7 29.80S  
#ELLENSBURG 3NE N/A 43 37 79 N13 27.93R WCI 36  
#ELLENSBURG 1E N/A 45 39 79 NW2 29.91S  
#KITTITAS 3S N/A 43 38 82 W7 29.85R  
#MANASTASH RDG N/A 41 40 96 W9 N/A  
#RYEGRASS DOT N/A 40 35 82 W24 N/A WCI 30  

 
 
WAZ027-240410-  
YAKIMA VALLEY  
 
CITY SKY/WX TMP DP RH WIND PRES REMARKS
 
SUNNYSIDE AP CLEAR 45 38 76 CALM 29.88R  
YAKIMA AIRPORT CLEAR 49 34 56 W8 29.85S  
YAKIMA-VAGABOND CLEAR 49 30 48 W15 29.83R WCI 43  
#DONALD 2NE N/A 48 20 33 N2 28.72R  
#GRANDVIEW N/A 51 40 66 CALM 29.81R  
#MABTON N/A 53 41 64 W1 29.86R  
#MOXEE 2E N/A 63 N/A N/A SW20 29.65F  
#NACHES 2SW N/A 47 35 63 CALM 29.82S  
#OUTLOOK DOT N/A 51 38 61 CALM 29.82R  
#PARKER DOT N/A 49 36 61 N1 29.85R  
#TERRACE HTS N/A 48 34 58 N2 29.82R  
#TOPPENISH N/A 55 37 51 CALM 29.78R  
#I82 S UMTANUM RN/A 45 26 47 N1 N/A  
#UNION GAP DOT N/A 53 32 45 SW7 29.87S  
#W YAKIMA N/A 48 33 56 W1 29.86R  
#WHITE SWAN 5E N/A 51 35 54 CALM 29.86R  
#WILEY CITY 3W N/A 44 30 58 CALM 29.82R  
#ZILLAH DOT N/A 55 33 43 W12 N/A  

 
 
WAZ028-240410-  
LOWER COLUMBIA BASIN...WASHINGTON  
 
CITY SKY/WX TMP DP RH WIND PRES REMARKS
 
PASCO MOCLDY 52 41 66 W6 29.88R  
PROSSER AWOS N/A 50 41 71 SW9 29.90R  
RICHLAND AWOS PTCLDY 48 42 80 S7 29.87R  
#BENTON CITY N/A 48 41 77 CALM 29.78R  
#CONNELL 5N N/A 45 39 79 W5 29.83R  
#CONNELL 5NW N/A 46 39 76 W5 29.79R  
#ELTOPIA 6NW N/A 48 41 77 CALM 28.82R  
#KAHLOTUS N/A 50 39 66 NW22 29.81R  
#KENNEWICK 3S N/A 56 46 69 N3 29.86R  
#PATERSON N/A 52 46 80 W3 29.88R  
#PROSSER DOT N/A 51 41 68 CALM 29.88R  
#SAGEMOOR 2W N/A 50 41 71 W5 29.72R  
#TOUCHET 2S N/A 56 48 74 W15G24 29.84R  
#WEST PASCO N/A 50 42 74 CALM 29.85R  

 
 
WAZ029-240410-  
FOOTHILLS OF THE BLUES...WASHINGTON  
 
CITY SKY/WX TMP DP RH WIND PRES REMARKS
 
WALLA WALLA AP CLOUDY 56 46 69 SW14 29.87R  
#CLYDE 6NW N/A 51 40 66 SW7 29.83R  
#DAYTON SCHOOL N/A 54 43 66 W8 29.87R  
#DELANEY DOT N/A 55 39 55 W8 29.86R  
#LOWDEN 2SE N/A 57 48 72 W15G24 29.84R  
#PLEASANT VIEW 1N/A 48 39 71 W3 29.85R  
#PRESCOTT N/A 56 49 77 CALM 29.83R  
#WHITMAN COLLEGEN/A 56 47 72 SW15 29.92R  
#WAITSBURG 5S N/A 52 47 83 S15 29.93R  
#WAITSBURG 6SSE N/A 53 45 74 E10 29.85R  
#WAITSBURG 8N N/A 51 N/A N/A S8 29.83S  
#WALLA WALLA 5E N/A 54 49 83 S20 N/A  
#WHITMAN MISSIONN/A 57 49 75 SW7 29.88R  

 
 
WAZ030-240410-  
BLUE MOUNTAINS...WASHINGTON  
 
CITY SKY/WX TMP DP RH WIND PRES REMARKS
 
#DIXIE 5SE N/A 47 42 83 SW22G30 29.80R WCI 39  

 
 
ORZ009-041-WAZ024-240410-  
COLUMBIA RIVER GORGE  
 
CITY SKY/WX TMP DP RH WIND PRES REMARKS
 
HOOD RIVER AP LGT RAIN 50 45 83 W7 29.97R  
THE DALLES AP CLEAR 53 44 71 CALM 29.93R  
#ARLINGTON AIRPON/A 52 44 74 SW15 29.91R  
#ARLINGTON HS N/A 54 43 66 W6 29.82R  
#CELILO DOT N/A 55 42 61 S1 N/A  
#LYLE N/A 54 45 71 N14G26 29.94R  
#MARYHILL N/A 52 41 66 N13 N/A  
#MURDOCK N/A 52 46 80 NW6 29.89R  
#RUFUS DOT N/A 56 N/A N/A W12 N/A  
#SMITHVILLE N/A 52 47 83 N3 29.89R  
 

 
 
ORZ510-240410-  
NORTH CENTRAL OREGON  
 
CITY SKY/WX TMP DP RH WIND PRES REMARKS
 
#ANTELOPE N/A 48 40 74 W7 29.75R  
#CHENOWITH 1W N/A 46 43 89 NW33G46 N/A WCI 36  
#COW CYN RST AREN/A 47 N/A N/A W18G30 N/A WCI 40  
#DUFUR N/A 50 42 74 N2 29.88R  
#DUFUR 9E N/A 45 43 93 N6 29.95R  
#GRASS VALLEY 1SN/A 48 43 83 NW5 29.96R  
#KENT DOT N/A 48 34 58 SW16G28 N/A WCI 42  
#MAUPIN SCHOOL N/A 54 42 64 SW1 29.98R  
#SHANIKO 5WSW N/A 45 N/A N/A W18G29 N/A WCI 37  
#SHANIKO 4NW N/A 43 39 86 W12 29.92R WCI 37  
#TYGH VALLEY 2NEN/A 51 43 74 N1 29.90R  
#WAPANITIA AIRPON/A 49 42 77 W13 29.91R WCI 44  
#WASCO DOT N/A 51 46 83 W5 N/A  
#WASCO 5NE N/A 50 39 66 W7 29.91R  

 
 
ORZ511-240410-  
CENTRAL OREGON  
 
CITY SKY/WX TMP DP RH WIND PRES REMARKS
 
BEND AIRPORT MOCLDY 48 45 89 N5 29.97R  
PRINEVILLE AP CLOUDY 50 43 77 NW9 29.97R  
REDMOND AIRPORT MOCLDY 49 43 80 NW10 29.95R  
#ASHWOOD SCHOOL N/A 49 44 83 CALM 29.93R  
#BEND 1SW N/A 46 44 93 SW1 N/A  
#BEND-AWBREY N/A 47 44 89 S3 29.87R  
#BEND-KIM LN N/A 48 41 77 W7 29.80R  
#CULVER N/A 49 41 74 SW3 29.73R  
#CULVER 8W N/A 47 40 76 CALM 29.96R  
#LAKE BILLY CHINN/A 50 N/A N/A S3 30.03R  
#MADRAS 4S N/A 50 10 19 SW12 N/A  
#POWELL BUTTE N/A 49 45 86 CALM 29.92R  
#PRINEVILLE N/A 51 45 80 W1 29.96R  
#PRINEVILLE 3N N/A 50 44 80 W5 29.87R  
#WARM SPRINGS N/A 54 42 64 CALM 29.78R  
 

 
 
 
ORZ509-240410-  
EAST SLOPES OF OREGON CASCADES  
 
CITY SKY/WX TMP DP RH WIND PRES REMARKS
 
SISTERS AWOS N/A 46 43 89 SW13 N/A WCI 40  
#BLUE BOX PASS N/A 39 N/A N/A S2 N/A  
#CAMP SHERMAN N/A 45 42 89 CALM 30.00R  
#LA PINE 4NW N/A 46 43 89 CALM 29.93R  
#LAVA BUTTE DOT N/A 45 42 89 CALM N/A  
#SISTERS ODOT N/A 47 42 83 SW6 N/A  
#SISTERS 3N N/A 44 41 89 NW2 29.97S  
#SUNRIVER N/A 46 44 93 S3 29.89S  
#TUMALO 3W N/A 46 43 89 E3 29.74R  
#WANOGA BUTTE D N/A 39 39 100 W10 N/A  
 

 
 
ORZ044-240410-  
LOWER COLUMBIA BASIN...OREGON  
 
CITY SKY/WX TMP DP RH WIND PRES REMARKS
 
HERMISTON CLOUDY 56 46 69 SW16 29.89R  
#BOARDMAN SCHOOLN/A 55 46 72 SW7 29.88R  
#BOARDMAN 8SW N/A 52 46 80 SW12 29.90R  
#ECHO 8SW N/A 54 46 74 W3 29.93R  
#I-84 EX 198 DOTN/A 53 47 80 E17 N/A  
#IONE SCHOOL N/A 52 33 48 SW12 29.93R  
#UMATILLA N/A 55 45 69 S9 29.82R  

 
 
ORZ507-240410-  
NORTHERN FOOTHILLS OF THE BLUES  
 
CITY SKY/WX TMP DP RH WIND PRES REMARKS
 
PENDLETON AIRPT CLOUDY 52 47 83 W21 29.90R  
#ADAMS 3WNW N/A 50 46 86 SW13 29.88R  
#ATHENA N/A 51 45 80 S6 29.89R  
#CAYUSE N/A 52 48 86 SW7 29.89R  
#HELIX SCHOOL N/A 50 46 86 N10 29.87R  
#HELIX 3N N/A 49 46 89 SW18 29.87R WCI 43  
#HOLDMAN 5SE N/A 51 47 86 SW12 29.90R  
#HOLDMAN 6E N/A 50 47 89 SW15G24 29.68R  
#M-F GROVE ELEM N/A 54 45 71 S6 29.87S  
#M-FREEWATER 5SEN/A 53 46 77 S10 29.89R  
#PENDLETON DNTN N/A 53 46 77 NW3 29.89R  
#PDT AQUATIC CTRN/A 53 47 80 W8 29.98R  
#PDT SUNRIDGE N/A 53 47 80 SW5 29.93R  
#PENDLETON 6SE N/A 52 47 83 SW8 29.87R  
#PENDLETON 7NW N/A 52 46 80 W8 29.53R  
#PILOT ROCK 1S N/A 52 41 66 CALM 29.94R  
#PILOT ROCK N/A 52 46 80 CALM 29.96R  
#TUTUILLA N/A 52 47 83 W7 29.97R  
#UMAPINE 2E N/A 56 48 74 SW13 29.84R  
#WESTON SCHOOL N/A 50 45 83 W9 29.85R  
 

 
 
ORZ508-240410-  
SOUTHERN FOOTHILLS OF THE BLUES  
 
CITY SKY/WX TMP DP RH WIND PRES REMARKS
 
LEXINGTON MOCLDY 50 48 93 W12 29.97R  
#AJAX N/A 47 38 71 N3 30.10R  
#CONDON 5W N/A 46 40 79 CALM 29.91R  
#HEPPNER EOC N/A 49 46 89 SW7 29.82R  
#HEPPNER 4NE N/A 46 45 96 SW8 29.86R  
#LEXINGTON 2SE N/A 52 48 86 W5 29.90R  
#MIKKALO N/A 49 45 86 W6 30.03R  
#OLEX 4N N/A 51 45 80 W15 29.91R  
#RUGGS 5NE N/A 47 46 96 W7 30.11R  
#RUGGS 2SW N/A 47 45 93 W1 29.89R  
 

 
 
ORZ502-503-240410-  
BLUE MOUNTAINS  
 
CITY SKY/WX TMP DP RH WIND PRES REMARKS
 
MEACHAM RAIN 43 41 93 VRB7 29.95R FOG  
#BATTLE MTN DOT N/A 44 42 93 CALM N/A  
#GRANITE N/A 44 41 89 E2 29.97S  
#GREENHORN 9SW N/A 47 46 96 CALM 29.93R  
#HARDMAN 10S N/A 42 40 93 CALM 29.97R  
#LADD CYN SMT N/A 52 41 66 W9 N/A  
#LADD CREEK ODOTN/A 54 33 45 E2 N/A  
#LONG CREEK HS N/A 51 47 86 NW14 29.93R  
#N POWDER DOT N/A 53 41 64 NW8 N/A  
#PIKES PEAK N/A 45 41 86 CALM 27.99S  
#TOLLGATE N/A 38 37 96 SW7 29.77R  
#TROY SCHOOL N/A 51 49 93 SW3 29.69R  
#UKIAH N/A 49 44 83 SW6 29.76R  
#WESTON 4E N/A 44 42 93 SW7 29.82R  

 
 
ORZ505-240410-  
JOHN DAY BASIN  
 
CITY SKY/WX TMP DP RH WIND PRES REMARKS
 
JOHN DAY LGT DRIZZLE 51 48 89 SW8 29.94R  
#ANTELOPE 9ESE N/A 54 44 69 CALM N/A  
#DAYVILLE SCHOOLN/A 53 48 83 CALM 29.90R  
#MITCHELL 8NW N/A 51 42 71 W1 29.91R  
#MONUMENT HS N/A 52 49 89 S1 29.88R  
#MT. VERNON 5SE N/A 48 46 93 CALM 29.89S  
#WINLOCK N/A 52 46 80 S3 29.91R  

 
 
ORZ506-240410-  
OCHOCO AND JOHN DAY HIGHLANDS  
 
CITY SKY/WX TMP DP RH WIND PRES REMARKS
 
#HORSE RIDGE DO N/A 48 42 80 S3 N/A  
#IZEE 6NW N/A 47 45 93 CALM N/A  
#PAULINA ODOT N/A 50 47 89 W3 N/A  
#PINE MTN OBS N/A 40 39 96 SW2 N/A  
#PRAIRIE CITY N/A 50 46 86 CALM 30.08  
#SENECA N/A 48 N/A N/A W7 N/A  
#SENECA 9NW N/A 46 44 93 CALM 29.87R  

 
 
ORZ049-240410-  
GRANDE RONDE VALLEY  
 
CITY SKY/WX TMP DP RH WIND PRES REMARKS
 
LA GRANDE LGT RAIN 50 48 93 NW14 29.92R  
#COVE SCHOOL N/A 52 47 83 CALM 29.93R  
#COVE 6NW N/A 51 48 89 W6 29.83R  
#ELGIN 3N N/A 49 42 77 SW3 30.32R  
#ELGIN 1E N/A 49 43 80 N5 N/A  
#IMBLER SCHOOL N/A 49 45 86 CALM 29.89R  
#ISLAND CITY 4N N/A 45 44 96 CALM 30.02R  
#LADD CYN DOT N/A 56 46 69 NW6 N/A  
#UNION 1S N/A 54 47 77 N8 29.84R  

 
 
ORZ050-240410-  
WALLOWA COUNTY  
 
CITY SKY/WX TMP DP RH WIND PRES REMARKS
 
JOSEPH AIRPORT LGT RAIN 48 45 89 N6 29.88R  
#ENTERPRISE HS N/A 48 45 89 NW6 29.66R  
#IMNAHA SCHOOL N/A 56 51 83 N1 29.84S  
#IMNAHA 10S N/A 49 46 89 S3 29.85R  
#JOSEPH N/A 48 45 89 N5 30.34R  
#JOSEPH 3N N/A 47 44 89 N5 29.92R  
#LOSTINE N/A 48 45 89 NW5 29.61R  
#LOSTINE 3SE N/A 48 45 89 E12 29.91R WCI 43  
#MT HOWARD 8000 N/A 35 32 89 W18G48 29.91F WCI 24  
#PROMISE 1S N/A 46 42 86 SW9 29.90R  
 

 
 
CLICK HERE TO GO TO PREVIOUS BULLETINS.

The Nexlab OR Page
The Nexlab WA Page Main Text Page